Regional Weather Roundup
Issued by NWS

Home | Current Version | Previous Version | Text Only | Print | Product List | Glossary Off
Versions: 1 2 3 4 5 6 7 8 9 10 11 12 13 14 15 16 17 18 19 20 21 22 23 24 25 26 27 28 29 30 31 32 33 34 35 36 37 38 39 40 41 42 43 44 45 46 47 48 49 50

000
ASUS43 KLSX 241907
RWRMO

WEATHER SUMMARY FOR MISSOURI
NATIONAL WEATHER SERVICE SPRINGFIELD MO
200 PM CDT THU JUL 24 2014

NOTE: "FAIR" INDICATES FEW OR NO CLOUDS BELOW 12,000 FEET WITH NO
       SIGNIFICANT WEATHER AND/OR OBSTRUCTIONS TO VISIBILITY.
       CURRENT SKY AND/OR WEATHER CONDITIONS ARE NOT AVAILABLE FOR
       CHILLICOTHE AND FARMINGTON.

MOZ001>031-035>038-043-044-053-054-242000-
...NORTHERN AND WESTERN MISSOURI...

CITY           SKY/WX    TMP DP  RH WIND       PRES   REMARKS
KANSAS CTY INT PTSUNNY   80  60  50 S10       30.13F
KANSAS C DTWN  SUNNY     82  58  43 SE8       30.11F
LEE`S SUMMIT   SUNNY     81  58  45 E10       30.14F
ST JOSEPH      SUNNY     80  60  50 SE14      30.10F
CHILLICOTHE      N/A     80  59  48 SE6       30.14F
KIRKSVILLE     CLOUDY    76  59  55 E5        30.15F

$$
MOZ066>068-077>081-088>096-101>105-242000-
...SOUTHWEST MISSOURI...

CITY           SKY/WX    TMP DP  RH WIND       PRES   REMARKS
SPRINGFIELD    SUNNY     82  57  42 E9        30.11F
JOPLIN         MOSUNNY   86  61  42 E7        30.09F

$$
MOZ032>034-039>042-045>050-055>058-069>072-242000-
...CENTRAL MISSOURI...

CITY           SKY/WX    TMP DP  RH WIND       PRES   REMARKS
COLUMBIA       MOSUNNY   80  56  43 E8        30.14F
JEFFERSON CITY MOSUNNY   78  54  43 E10       30.12F
ROLLA          SUNNY     79  52  38 MISG      30.12F
SEDALIA        SUNNY     81  57  43 E10       30.13F
WHITEMAN AFB   SUNNY     80  45  28 E7        30.12F
OSAGE BEACH    SUNNY     82  54  36 NE9       30.12F

$$
MOZ051-052-059>065-242000-
...EAST CENTRAL MISSOURI...

CITY           SKY/WX    TMP DP  RH WIND       PRES   REMARKS
ST LOUIS INTL  PTSUNNY   81  54  39 N10G16    30.12F
SPIRIT OF STL  MOSUNNY   80  53  39 N12G17    30.11F
ST CHARLES     SUNNY     79  53  40 N12       30.11F

$$
MOZ072>076-082>087-097>100-106>115-242000-
...SOUTH CENTRAL AND SOUTHEAST MISSOURI...

CITY           SKY/WX    TMP DP  RH WIND       PRES   REMARKS
CAPE GIRARDEAU PTSUNNY   77  61  57 NE8       30.07F
FARMINGTON     SUNNY     75  52  43 N9        30.14F
POPLAR BLUFF   SUNNY     81  48  31 N8        30.07F
WEST PLAINS    SUNNY     79  57  46 N8        30.13F

$$


USA.gov is the U.S. government's official web portal to all federal, state and local government web resources and services.